カタログに戻る

ONEWEB-0181

運用中通信PO
NORAD 48230·PAYLOAD·🇬🇧 United Kingdom

打ち上げ Apr 25, 2021 から Vostochny Cosmodrome

Loading…

次のパス (今後24時間)

TLE

最新Source: CelesTrak SupGP

元期: Sep 14, 2026, 16:57 UTC

1 48230C 21031W   26257.70675185 -.00002923  00000+0 -78944-2 0  2573
2 48230  87.8892 271.8656 0001587  95.9708   4.0827 13.14506547    13

AllMySatでONEWEB-0181をリアルタイム追跡

Download on the App Store